EHI
0 0 1 2 4 4 2 1 2 3 3 3 2 1 1 2 3 4 2 1 0 0 0 0 0 0 0 0 0 0 0 0 0 0 0 0 0 0 0 0 0 0 0
0 0 1 3 4 4 2 1 2 3 3 3 2 1 0 1 2 3 2 0 0 0 0 0 0 0 0 0 0 0 0 0 0 0 0 0 0 0 0 0 0 0 0
0 0 1 3 5 5 3 2 2 2 1 1 2 1 0 0 1 2 1 0 0 0 0 0 0 0 0 0 0 0 0 0 0 0 0 0 0 0 0 0 0 0 0
0 1 1 3 5 5 3 2 1 1 1 0 1 1 0 0 0 1 1 0 0 0 0 0 0 0 0 0 0 0 0 0 0 0 0 0 0 0 0 0 0 0 0
1 2 3 4 6 4 2 2 2 2 2 1 1 1 1 0 0 0 0 0 0 0 0 0 0 0 0 0 0 0 0 0 0 0 0 0 0 0 0 0 0 0 0
1 2 4 6 7 4 3 3 4 3 3 3 2 2 2 1 0 0 0 0 0 0 0 0 0 0 0 0 0 0 0 0 0 0 0 0 0 0 0 0 0 0 0
1 2 4 6 6 4 3 4 4 3 2 2 2 2 2 1 0 0 0 0 0 0 0 0 0 0 0 0 0 0 0 0 0 0 0 0 0 0 0 0 0 0 0
2 3 3 4 3 2 1 2 2 1 1 1 1 1 1 0 0 0 0 0 0 0 0 0 0 0 0 0 0 0 0 0 0 0 0 0 0 0 0 0 0 0 0
3 3 3 3 1 0 0 1 1 0 0 0 0 0 0 0 0 0 0 0 0 0 0 0 0 0 0 0 0 0 0 0 0 0 0 0 0 0 0 0 0 0 0
3 3 3 2 1 0 0 0 0 0 0 0 0 0 0 0 0 0 0 0 0 0 0 0 0 0 0 0 0 0 0 0 0 0 0 0 0 0 0 0 0 0 0
3 3 3 2 1 0 0 0 0 0 0 0 0 0 0 0 0 0 0 0 0 0 0 0 0 0 0 0 0 0 0 0 0 0 0 0 0 0 0 0 0 0 0
3 3 3 2 1 0 0 0 0 0 0 0 0 0 0 0 0 0 0 0 0 0 0 0 0 0 0 0 0 0 0 0 0 0 0 0 0 0 0 0 0 0 0
3 3 3 1 0 0 0 0 0 0 0 0 0 0 0 0 0 0 0 0 0 0 0 0 0 0 0 0 0 0 0 0 0 0 0 0 0 0 0 0 0 0 0
3 3 2 1 0 0 0 0 0 0 0 0 0 0 0 0 0 0 0 0 0 0 0 0 0 0 0 0 0 0 0 0 0 0 0 0 0 0 0 0 0 0 0
3 2 1 0 0 0 0 0 0 0 0 0 0 0 0 0 0 0 0 0 0 0 0 0 0 0 0 0 0 0 0 0 0 0 0 0 0 0 0 0 0 0 0
2 1 0 0 0 0 0 0 0 0 0 0 0 0 0 0 0 0 0 0 0 0 0 0 0 0 0 0 0 0 0 0 0 0 0 0 0 0 0 0 0 0 0
1 0 0 0 0 0 0 0 0 0 0 0 0 0 0 0 0 0 0 0 0 0 0 0 0 0 0 0 0 0 0 0 0 0 0 0 0 0 0 0 0 0 0
0 0 0 0 0 0 0 0 0 0 0 0 0 0 0 0 0 0 0 0 0 0 0 0 0 0 0 0 0 0 0 0 0 0 0 0 0 0 0 0 0 0 0
0 0 0 0 0 0 0 0 0 0 0 0 0 0 0 0 0 0 0 0 0 0 0 0 0 0 0 0 0 0 0 0 0 0 0 0 0 0 0 0 0 0 0
0 0 0 0 0 0 0 0 0 0 0 0 0 0 0 0 0 0 0 0 0 0 0 0 0 0 0 0 0 0 0 0 0 0 0 0 0 0 0 0 0 0 0
0 0 0 0 0 0 0 0 0 0 0 0 0 0 0 0 0 0 0 0 0 0 0 0 0 0 0 0 0 0 0 0 0 0 0 0 0 0 0 0 0 0 0
0 0 0 0 0 0 0 0 0 0 0 0 0 0 0 0 0 0 0 0 0 0 0 0 0 0 0 0 0 0 0 0 0 0 0 0 0 0 0 0 0 0 0
0 0 0 0 0 0 0 0 0 0 0 0 0 0 0 0 0 0 0 0 0 0 0 0 0 0 0 0 0 0 0 0 0 0 0 0 0 0 0 0 0 0 0
0 0 0 0 0 0 0 0 0 0 0 0 0 0 0 0 0 0 0 0 0 0 0 0 0 0 0 0 0 0 0 0 0 0 0 0 0 0 0 0 0 0 0
0 0 0 0 0 0 0 0 0 0 0 0 0 0 0 0 0 0 0 0 0 0 0 0 0 0 0 0 0 0 0 0 0 0 0 0 0 0 0 0 0 0 0
0 0 0 0 0 0 0 0 0 0 0 0 0 0 0 0 0 0 0 0 0 0 0 0 0 0 0 0 0 0 0 0 0 0 0 0 0 0 0 0 0 0 0
Wind_Speed
1 2 2 4 7 8 8 9 9 10 10 10 11 11 12 12 12 12 12 11 11 11 12 12 12 13 13 14 14 14 14 14 14 14 13 13 13 13 13 13 12 8 14
2 2 2 5 7 8 9 9 9 10 10 10 10 11 11 11 12 12 12 11 11 11 11 11 11 12 13 13 14 13 13 13 13 13 12 10 11 13 13 13 12 9 14
3 1 2 5 7 8 9 9 10 10 10 9 10 10 11 11 11 12 11 11 11 11 11 11 11 12 12 12 12 12 12 13 13 12 10 6 7 12 13 13 13 14 14
4 2 3 6 8 9 9 9 10 10 9 9 9 10 11 11 11 11 11 11 11 11 11 11 11 11 11 11 11 11 12 11 12 11 6 5 5 11 13 13 13 13 14
4 3 3 7 8 9 9 9 9 9 9 9 9 10 10 10 10 11 11 11 11 11 10 10 10 10 10 10 11 10 11 12 12 9 5 5 5 10 12 12 13 13 13
4 3 3 7 8 9 9 9 9 9 9 9 9 10 10 10 10 10 11 11 10 10 10 9 9 10 10 10 10 10 11 11 9 6 5 4 4 9 11 12 12 12 12
5 3 3 7 8 8 8 8 8 9 9 9 9 9 10 9 9 10 10 10 10 9 9 9 9 9 9 10 10 10 10 9 6 5 4 3 4 9 10 11 11 11 11
5 4 3 6 7 7 7 7 7 8 8 8 8 9 9 9 9 9 9 9 9 9 8 8 8 8 8 9 9 9 10 8 6 5 3 2 5 8 9 10 10 10 11
5 4 3 3 4 5 6 7 7 7 7 7 8 8 9 8 8 9 9 9 9 9 8 7 7 8 8 8 9 9 10 9 5 3 3 2 4 7 8 9 9 9 10
5 4 4 4 3 3 3 6 6 7 7 7 8 8 8 8 8 8 8 8 8 8 8 7 6 7 7 7 8 8 8 6 4 3 2 1 4 6 7 8 8 8 9
4 3 3 3 3 3 2 4 5 5 6 6 5 7 6 4 4 4 6 8 8 7 7 7 6 7 7 6 7 7 6 3 3 2 2 3 4 5 6 7 7 7 8
3 2 2 2 2 2 2 2 2 3 3 3 3 3 3 3 3 4 6 7 7 7 7 8 7 6 5 3 4 5 2 3 2 2 2 3 4 5 6 6 6 6 6
4 3 2 2 2 2 1 1 1 1 1 2 2 2 2 2 2 3 2 3 4 5 4 5 5 3 2 2 2 2 2 2 1 2 2 4 4 4 5 5 5 5 5
3 3 2 3 2 2 2 1 1 1 1 1 1 2 2 2 2 2 2 2 2 2 3 3 2 3 3 3 2 2 2 2 2 1 2 4 4 3 4 4 5 5 6
3 3 2 3 3 3 2 1 2 1 1 1 1 1 2 2 2 1 1 1 2 2 2 2 2 3 3 3 2 2 2 2 2 2 2 4 4 3 2 3 3 4 4
4 3 2 3 3 3 3 2 2 1 1 1 1 1 2 2 2 1 1 1 1 1 1 2 2 2 2 2 2 2 1 1 1 1 1 2 4 3 2 2 2 2 3
4 3 2 3 3 3 3 3 2 1 1 1 1 1 1 1 2 1 1 0 0 1 1 2 2 2 2 2 2 2 1 1 1 1 1 1 1 2 2 1 1 1 1
4 4 3 2 2 2 2 2 2 2 2 1 1 1 1 1 1 1 1 0 0 1 1 1 2 2 2 2 1 2 1 1 1 0 0 0 0 1 2 2 1 1 1
5 4 3 2 2 2 2 2 2 2 2 1 1 1 1 1 1 1 1 0 1 1 1 1 2 1 1 2 1 1 1 1 1 0 0 0 0 0 0 2 2 2 3
4 4 4 3 3 2 2 2 1 2 1 1 1 1 1 1 1 1 1 0 1 1 1 1 1 1 1 1 1 1 1 1 0 0 1 0 0 0 0 1 1 2 3
3 4 4 4 3 3 2 2 2 1 1 1 1 1 1 1 1 1 1 1 1 1 1 1 1 1 1 1 1 1 2 1 0 0 0 0 0 0 0 0 0 0 1
5 4 4 4 3 3 2 2 1 1 1 1 1 1 1 1 1 1 1 1 0 1 1 1 1 1 0 1 1 1 1 2 2 1 1 0 1 1 1 1 1 1 1
5 5 4 4 3 3 3 2 2 1 1 0 0 1 1 1 1 1 1 1 1 1 2 2 1 2 1 1 0 2 2 2 2 2 2 1 1 1 1 2 2 2 2
5 4 4 4 3 3 4 3 4 3 2 2 1 1 1 1 1 2 2 2 1 1 2 2 2 2 2 2 1 1 1 2 2 2 3 2 2 2 2 2 2 3 3
4 4 4 4 3 3 3 4 4 3 2 1 1 1 1 1 2 2 2 2 2 2 2 2 2 2 2 2 2 1 1 1 1 2 3 3 3 2 2 3 3 3 3
2 2 3 4 3 4 4 4 4 4 4 3 2 3 2 1 2 2 2 2 2 2 2 2 2 2 2 2 2 2 2 2 2 2 3 3 3 3 3 3 3 3 2
Wind_Direction
233 270 192 120 110 102 93 88 85 82 78 72 71 70 72 73 73 72 72 74 75 75 74 74 74 75 76 76 74 73 71 68 66 62 59 62 68 73 74 74 74 71 79
166 227 155 118 112 104 96 90 88 85 80 75 72 71 71 72 72 71 71 73 74 74 74 76 75 75 74 74 74 73 73 70 67 61 54 51 62 72 75 76 77 79 80
127 150 146 120 112 105 98 93 88 86 83 80 76 73 71 71 73 71 70 69 73 75 75 75 74 72 74 73 72 73 73 70 66 59 53 42 58 72 76 77 78 79 79
125 112 126 117 112 107 101 95 89 87 85 82 82 79 74 71 72 73 70 69 70 74 75 75 75 72 72 73 74 74 71 68 63 58 50 40 52 72 76 78 78 79 79
109 93 113 113 112 108 102 96 90 87 85 84 84 82 79 74 72 71 70 67 67 71 75 77 75 71 68 70 74 74 71 67 62 54 45 42 49 74 78 77 78 79 80
100 85 108 112 110 104 102 99 94 91 87 88 86 83 79 76 72 70 68 66 67 72 74 76 76 73 69 69 74 73 70 65 57 50 46 42 52 77 80 80 81 80 82
104 86 96 107 108 105 101 99 96 95 90 87 86 85 80 76 74 71 68 66 65 69 74 74 77 75 71 70 74 73 69 64 56 48 46 41 64 81 84 85 85 84 83
108 94 90 105 103 102 102 97 96 93 91 86 84 85 81 77 74 71 67 64 63 63 69 72 74 74 73 75 76 75 67 61 56 48 39 43 75 85 88 88 88 88 85
100 89 69 72 88 98 97 96 96 92 87 83 85 85 77 74 72 69 65 62 59 57 55 65 70 72 75 77 75 72 66 58 48 37 34 34 81 90 93 89 90 91 89
94 88 75 61 57 61 83 93 91 91 87 80 75 76 72 67 66 63 57 58 56 53 50 55 70 75 72 75 72 68 64 56 37 25 11 39 87 98 97 96 94 93 90
102 92 86 75 62 59 70 87 87 88 86 80 71 72 71 59 53 51 49 54 52 50 48 47 60 74 70 65 65 63 57 48 38 20 357 53 88 102 103 106 103 97 93
145 136 109 104 91 74 76 71 67 71 77 73 69 71 68 60 51 50 46 48 45 41 38 36 40 51 57 48 50 53 49 47 40 13 6 50 85 102 106 109 112 107 102
162 154 141 135 123 108 88 89 68 66 71 78 78 76 73 63 55 47 42 33 29 31 24 24 28 25 36 45 46 46 46 44 36 7 9 43 67 96 101 103 112 116 113
155 163 159 152 145 137 123 117 103 82 88 84 91 96 95 86 70 58 48 32 24 17 19 21 22 20 31 39 53 57 48 39 34 15 10 35 49 84 101 106 104 113 113
167 178 174 161 155 151 140 139 118 117 115 107 111 109 108 110 104 79 57 47 29 20 25 21 22 28 31 32 35 54 52 43 37 24 3 21 35 62 91 103 111 118 117
179 181 182 171 160 150 143 142 141 137 122 101 93 99 114 123 127 115 81 50 37 25 21 29 28 36 26 29 24 26 32 39 37 23 7 0 19 37 74 106 108 121 135
185 176 177 170 151 152 150 147 137 141 132 120 110 100 102 113 130 136 129 85 31 31 33 38 35 41 33 26 17 7 19 27 21 356 352 358 350 11 31 72 75 89 143
173 175 181 171 150 150 147 146 135 138 134 129 116 120 110 107 118 129 134 134 66 62 52 54 44 45 28 11 358 345 350 347 336 329 19 56 15 343 346 11 19 10 0
177 173 173 164 153 154 145 142 133 134 139 135 120 127 116 103 98 107 132 145 110 88 63 56 41 51 39 1 334 330 336 324 304 327 174 165 164 279 312 351 359 354 345
176 171 163 156 149 147 138 123 121 121 129 132 137 140 127 117 98 103 100 88 110 110 73 61 50 38 41 332 336 336 320 305 283 239 250 217 152 147 55 18 349 331 335
169 170 168 164 160 149 156 159 167 185 185 169 155 152 153 132 126 124 112 83 113 148 153 132 79 67 38 22 47 1 341 333 347 305 295 37 333 292 244 247 259 296 306
183 185 183 181 176 175 178 177 181 171 202 197 184 181 184 151 154 156 134 148 152 150 138 136 96 114 52 49 114 93 346 334 331 309 283 236 276 319 311 281 249 246 266
190 191 193 193 186 180 158 131 113 86 52 74 224 213 230 188 176 168 176 169 191 182 186 188 178 166 186 263 147 147 155 229 299 303 282 262 267 281 288 290 271 260 256
207 198 191 183 181 179 162 158 165 176 194 218 213 228 235 201 191 180 179 184 195 203 201 208 199 208 185 202 245 253 192 171 184 292 300 287 280 273 277 292 285 274 259
205 197 191 175 176 177 176 175 183 191 197 193 193 205 223 230 213 200 189 191 201 211 215 220 217 222 209 205 204 216 241 265 196 190 261 288 300 269 264 265 261 260 268
197 191 186 176 183 182 182 180 187 198 191 188 202 211 221 233 233 221 210 204 207 212 217 221 224 226 225 223 220 210 195 200 207 204 229 253 272 278 274 255 247 252 258